| time (UTC) | temp C | wind direction | speed KPH | gust KPH | rain 1hr cm | rain 24hr cm | rain mn cm | humidity % | barometer mb |
| 20260507203059 | 12 | 355 | 4.8 | 8.0 | 0.00 | 0.00 | 0.00 | 74 | 1016.9 |
| 20260507201552 | 12 | 350 | 4.8 | 8.0 | 0.00 | 0.00 | 0.00 | 73 | 1017.1 |
| 20260507200052 | 12 | 0 | 0.0 | 4.8 | 0.00 | 0.00 | 0.00 | 73 | 1016.8 |
| 20260507194554 | 12 | 297 | 3.2 | 8.0 | 0.00 | 0.00 | 0.00 | 73 | 1016.9 |
| 20260507193055 | 12 | 28 | 0.0 | 4.8 | 0.00 | 0.00 | 0.00 | 73 | 1016.7 |
| 20260507191558 | 12 | 313 | 4.8 | 8.0 | 0.00 | 0.00 | 0.00 | 73 | 1016.7 |
| 20260507190051 | 12 | 30 | 1.6 | 6.4 | 0.00 | 0.00 | 0.00 | 72 | 1016.4 |
| 20260507184554 | 12 | 336 | 4.8 | 8.0 | 0.00 | 0.00 | 0.00 | 72 | 1016.4 |
| 20260507183056 | 13 | 338 | 4.8 | 8.0 | 0.00 | 0.00 | 0.00 | 72 | 1016.3 |
| 20260507181553 | 13 | 355 | 3.2 | 9.7 | 0.00 | 0.00 | 0.00 | 70 | 1016.1 |
| 20260507180059 | 13 | 355 | 6.4 | 9.7 | 0.00 | 0.00 | 0.00 | 69 | 1016.1 |
| 20260507174605 | 14 | 360 | 3.2 | 8.0 | 0.00 | 0.00 | 0.00 | 67 | 1015.9 |
| 20260507173104 | 14 | 324 | 4.8 | 8.0 | 0.00 | 0.00 | 0.00 | 67 | 1015.8 |
| 20260507171611 | 16 | 339 | 1.6 | 4.8 | 0.00 | 0.00 | 0.00 | 64 | 1015.7 |
| 20260507170053 | 16 | 333 | 0.0 | 3.2 | 0.00 | 0.00 | 0.00 | 61 | 1015.6 |
| 20260507164553 | 17 | 0 | 0.0 | 3.2 | 0.00 | 0.00 | 0.00 | 62 | 1015.6 |
| 20260507163054 | 17 | 0 | 1.6 | 6.4 | 0.00 | 0.00 | 0.00 | 60 | 1015.7 |
| 20260507161601 | 17 | 0 | 1.6 | 6.4 | 0.00 | 0.00 | 0.00 | 54 | 1015.6 |
| 20260507160057 | 18 | 178 | 0.0 | 12.9 | 0.00 | 0.00 | 0.00 | 54 | 1015.5 |
| 20260507154553 | 18 | 94 | 3.2 | 8.0 | 0.00 | 0.00 | 0.00 | 54 | 1015.3 |
| 20260507153101 | 18 | 267 | 3.2 | 12.9 | 0.00 | 0.00 | 0.00 | 56 | 1015.4 |
| 20260507151558 | 18 | 0 | 3.2 | 9.7 | 0.00 | 0.00 | 0.00 | 56 | 1015.4 |
| 20260507150104 | 18 | 132 | 6.4 | 17.7 | 0.00 | 0.00 | 0.00 | 56 | 1015.5 |
| 20260507144554 | 18 | 140 | 6.4 | 14.5 | 0.00 | 0.00 | 0.00 | 57 | 1015.5 |
| 20260507143058 | 17 | 167 | 4.8 | 11.3 | 0.00 | 0.00 | 0.00 | 59 | 1015.6 |
| 20260507141553 | 17 | 185 | 3.2 | 9.7 | 0.00 | 0.00 | 0.00 | 57 | 1015.5 |
| 20260507140108 | 18 | 153 | 4.8 | 14.5 | 0.00 | 0.00 | 0.00 | 57 | 1015.3 |
| 20260507134556 | 18 | 169 | 6.4 | 16.1 | 0.00 | 0.00 | 0.00 | 57 | 1015.5 |
| 20260507133101 | 18 | 164 | 8.0 | 19.3 | 0.00 | 0.00 | 0.00 | 56 | 1015.7 |
| 20260507131554 | 19 | 148 | 6.4 | 16.1 | 0.00 | 0.00 | 0.00 | 52 | 1015.7 |
| 20260507130108 | 18 | 0 | 1.6 | 9.7 | 0.00 | 0.00 | 0.00 | 51 | 1015.7 |
| 20260507124613 | 18 | 140 | 8.0 | 16.1 | 0.00 | 0.10 | 0.00 | 52 | 1015.8 |
| 20260507123053 | 18 | 175 | 8.0 | 25.7 | 0.00 | 0.10 | 0.00 | 54 | 1015.8 |
| 20260507121554 | 18 | 167 | 6.4 | 16.1 | 0.00 | 0.10 | 0.00 | 49 | 1015.7 |
| 20260507120054 | 19 | 142 | 4.8 | 12.9 | 0.00 | 0.10 | 0.00 | 47 | 1015.8 |
| 20260507114610 | 20 | 166 | 3.2 | 19.3 | 0.00 | 0.36 | 0.00 | 44 | 1015.7 |
| 20260507113055 | 20 | 100 | 3.2 | 14.5 | 0.00 | 0.36 | 0.00 | 46 | 1015.6 |
| 20260507111553 | 20 | 182 | 3.2 | 12.9 | 0.00 | 0.36 | 0.00 | 44 | 1015.8 |
| 20260507110052 | 18 | 315 | 1.6 | 12.9 | 0.00 | 0.36 | 0.00 | 46 | 1015.9 |
| 20260507104556 | 19 | 134 | 4.8 | 11.3 | 0.00 | 0.36 | 0.00 | 46 | 1016.3 |
| 20260507103055 | 18 | 185 | 3.2 | 16.1 | 0.00 | 0.36 | 0.00 | 49 | 1016.3 |
| 20260507101559 | 18 | 126 | 6.4 | 17.7 | 0.00 | 0.36 | 0.00 | 49 | 1016.4 |
| 20260507100057 | 18 | 176 | 3.2 | 12.9 | 0.00 | 0.36 | 0.00 | 45 | 1016.4 |
| 20260507094552 | 17 | 303 | 3.2 | 11.3 | 0.00 | 0.41 | 0.00 | 47 | 1016.4 |
| 20260507093054 | 17 | 329 | 6.4 | 14.5 | 0.00 | 0.41 | 0.00 | 51 | 1016.5 |
| 20260507091550 | 17 | 130 | 3.2 | 11.3 | 0.00 | 0.41 | 0.00 | 47 | 1016.4 |
| 20260507090105 | 16 | 0 | 1.6 | 8.0 | 0.00 | 0.41 | 0.00 | 52 | 1016.5 |
| 20260507084552 | 16 | 108 | 0.0 | 9.7 | 0.00 | 0.56 | 0.00 | 49 | 1016.5 |
| 20260507083054 | 15 | 138 | 0.0 | 8.0 | 0.00 | 0.56 | 0.00 | 52 | 1016.4 |
| 20260507081553 | 16 | 0 | 0.0 | 4.8 | 0.00 | 0.56 | 0.00 | 58 | 1016.3 |
| 20260507074606 | 14 | 99 | 1.6 | 11.3 | 0.00 | 0.61 | 0.00 | 59 | 1016.2 |
| 20260507073054 | 13 | 119 | 0.0 | 6.4 | 0.00 | 0.61 | 0.00 | 66 | 1016.1 |
| 20260507071555 | 12 | 44 | 0.0 | 4.8 | 0.00 | 0.61 | 0.00 | 68 | 1016.0 |
| 20260507070106 | 12 | 130 | 1.6 | 6.4 | 0.00 | 0.61 | 0.00 | 68 | 1016.0 |
| 20260507064559 | 12 | 117 | 1.6 | 8.0 | 0.00 | 0.76 | 0.00 | 67 | 1015.7 |
| 20260507063058 | 12 | 133 | 0.0 | 4.8 | 0.00 | 0.76 | 0.00 | 69 | 1015.7 |
| 20260507061552 | 11 | 19 | 0.0 | 4.8 | 0.00 | 0.76 | 0.00 | 71 | 1015.6 |
| 20260507060049 | 11 | 0 | 0.0 | 4.8 | 0.00 | 0.76 | 0.00 | 70 | 1015.4 |
| 20260507054554 | 10 | 0 | 0.0 | 4.8 | 0.00 | 0.94 | 0.00 | 70 | 1015.3 |
| 20260507053053 | 10 | 159 | 0.0 | 4.8 | 0.00 | 0.94 | 0.00 | 69 | 1015.1 |
| 20260507051558 | 10 | 0 | 0.0 | 6.4 | 0.00 | 0.94 | 0.00 | 69 | 1014.9 |
| 20260507044559 | 9 | 360 | 4.8 | 8.0 | 0.00 | 1.30 | 0.00 | 68 | 1014.6 |
| 20260507043053 | 8 | 335 | 4.8 | 8.0 | 0.00 | 1.30 | 0.00 | 69 | 1014.4 |
| 20260507041551 | 8 | 334 | 3.2 | 6.4 | 0.00 | 1.30 | 0.00 | 68 | 1014.3 |
| 20260507040051 | 8 | 13 | 3.2 | 6.4 | 0.00 | 1.30 | 0.00 | 66 | 1014.4 |
| 20260507034553 | 9 | 38 | 3.2 | 6.4 | 0.00 | 1.68 | 0.00 | 66 | 1014.4 |
| 20260507033056 | 9 | 227 | 0.0 | 3.2 | 0.00 | 1.68 | 0.00 | 67 | 1014.3 |
| 20260507031557 | 9 | 0 | 1.6 | 6.4 | 0.00 | 1.68 | 0.00 | 66 | 1014.3 |
| 20260507030053 | 9 | 319 | 3.2 | 9.7 | 0.00 | 1.68 | 0.00 | 69 | 1014.3 |
| 20260507024551 | 8 | 341 | 4.8 | 12.9 | 0.00 | 1.80 | 0.00 | 74 | 1014.4 |
| 20260507023051 | 9 | 329 | 4.8 | 9.7 | 0.00 | 1.80 | 0.00 | 75 | 1014.3 |
| 20260507021550 | 9 | 321 | 3.2 | 9.7 | 0.00 | 1.80 | 0.00 | 75 | 1014.2 |
| 20260507020058 | 9 | 328 | 3.2 | 12.9 | 0.00 | 1.80 | 0.00 | 74 | 1014.3 |
| 20260507014553 | 10 | 0 | 1.6 | 8.0 | 0.00 | 2.06 | 0.00 | 73 | 1014.2 |
| 20260507013101 | 10 | 325 | 4.8 | 9.7 | 0.00 | 2.06 | 0.00 | 73 | 1014.2 |
| 20260507011553 | 10 | 342 | 4.8 | 8.0 | 0.00 | 2.06 | 0.00 | 73 | 1014.3 |
| 20260507004551 | 10 | 338 | 4.8 | 9.7 | 0.00 | 2.24 | 0.00 | 72 | 1014.2 |
| 20260507003056 | 10 | 328 | 4.8 | 11.3 | 0.00 | 2.24 | 0.00 | 73 | 1014.0 |
| 20260507001554 | 11 | 338 | 4.8 | 9.7 | 0.00 | 2.24 | 0.00 | 72 | 1014.2 |
| 20260507000052 | 11 | 342 | 3.2 | 12.9 | 0.00 | 2.24 | 0.00 | 72 | 1014.3 |
| 20260506234554 | 11 | 355 | 4.8 | 14.5 | 0.00 | 2.39 | 0.00 | 72 | 1014.3 |
| 20260506233104 | 11 | 11 | 3.2 | 9.7 | 0.00 | 2.39 | 0.00 | 70 | 1014.4 |
| 20260506231600 | 11 | 360 | 3.2 | 8.0 | 0.00 | 2.39 | 0.00 | 69 | 1014.2 |
| 20260506230105 | 11 | 360 | 3.2 | 14.5 | 0.00 | 2.39 | 0.00 | 69 | 1014.3 |
| 20260506224559 | 11 | 360 | 4.8 | 11.3 | 0.00 | 2.49 | 0.00 | 68 | 1014.5 |
| 20260506223059 | 11 | 16 | 3.2 | 8.0 | 0.00 | 2.49 | 0.00 | 66 | 1014.5 |
| 20260506221600 | 11 | 319 | 3.2 | 11.3 | 0.00 | 2.49 | 0.00 | 63 | 1014.3 |
| 20260506220059 | 12 | 22 | 3.2 | 12.9 | 0.00 | 2.49 | 0.00 | 62 | 1014.4 |
| 20260506214601 | 12 | 360 | 1.6 | 6.4 | 0.00 | 2.49 | 2.49 | 60 | 1014.3 |
| 20260506213055 | 12 | 99 | 0.0 | 3.2 | 0.00 | 2.49 | 2.49 | 59 | 1014.1 |
| 20260506211610 | 12 | 181 | 0.0 | 9.7 | 0.00 | 2.49 | 2.49 | 55 | 1014.2 |
| 20260506210058 | 12 | 360 | 4.8 | 8.0 | 0.00 | 2.49 | 2.49 | 57 | 1014.2 |
| 20260506204556 | 12 | 0 | 0.0 | 8.0 | 0.00 | 2.49 | 2.49 | 59 | 1013.9 |